Flag for U.S.A. Weather past 2 weeks in Evansville, Indiana, U.S.A.

Now
40 °F

Mostly cloudy.


Feels Like: 31 °F
Forecast: 28 / 42 °F
Wind: 18 mph from North

Location: Evansville Regional Airport

Current Time: Mar 27, 2015 at 2:38:04 PM

Latest Report: Mar 27, 2015 at 1:54 PM


Visibility: 10 mi

Pressure: 30.11 "Hg

Humidity: 60%

Dew point: 27 °F

Location of EvansvilleLocation

Historic Weather in Evansville — Graph

°F

Evansville temperature yesterday

Maximum temperature yesterday: 52 °F (at 12:54 AM)
Minimum temperature yesterday: 35 °F (at 11:54 PM)
Average temperature yesterday: 44 °F

Past Weeks' High & Low Weather Summary

 TemperatureHumidityPressure
High75 °F (Mar 16, 4:54 PM)97% (Mar 14, 5:54 AM)30.39 "Hg (Mar 14, 5:54 AM)
Low31 °F (Mar 27, 3:54 AM)22% (Mar 22, 1:54 PM)29.87 "Hg (Mar 26, 4:54 AM)
Average51 °F65%30.12 "Hg
* Reported Mar 12 12:54 PM — Mar 27 12:54 PM, Evansville, Weather by CustomWeather, © 2015

Note: Actual official high and low records may vary slightly from our data, if they occured in-between our weather recording intervals... More about our weather records

Advertising

Evansville weather history for previous 24 hours

 ConditionsComfort  
Time TempWeatherWind HumidityBarometerVisibility
12:54 PM
Fri, Mar 27
40 °FMore clouds than sun.13 mph60%30.11 "Hg10 mi
11:54 AM40 °FMore clouds than sun.13 mph63%30.10 "Hg8 mi
10:54 AM42 °FPartly sunny.10 mph60%30.09 "Hg10 mi
9:54 AM42 °FPassing clouds.10 mph65%30.08 "Hg9 mi
8:54 AM39 °FPartly sunny.10 mph70%30.07 "Hg8 mi
7:54 AM37 °FOvercast.7 mph73%30.06 "Hg8 mi
6:54 AM36 °FMostly cloudy.7 mph75%30.04 "Hg8 mi
5:54 AM36 °FClear.5 mph79%30.03 "Hg9 mi
4:54 AM37 °FPassing clouds.7 mph76%30.03 "Hg10 mi
3:54 AM31 °FIce fog.5 mph89%30.01 "Hg5 mi
2:54 AM34 °FClear.No wind85%30.01 "Hg7 mi
1:54 AM34 °FClear.3 mph85%30.03 "Hg7 mi
12:54 AM37 °FClear.No wind79%30.04 "Hg10 mi
11:54 PM
Thu, Mar 26
35 °FClear.No wind88%30.03 "Hg7 mi
10:54 PM36 °FClear.5 mph85%30.05 "Hg7 mi
9:54 PM39 °FClear.No wind76%30.05 "Hg10 mi
8:54 PM41 °FPassing clouds.3 mph74%30.05 "Hg10 mi
7:54 PM43 °FPassing clouds.6 mph68%30.02 "Hg10 mi
6:54 PM44 °FSunny.7 mph65%30.02 "Hg10 mi
5:54 PM45 °FPassing clouds.9 mph63%30.00 "Hg10 mi
4:54 PM44 °FPartly sunny.12 mph68%29.98 "Hg10 mi
3:54 PM44 °FOvercast.13 mph68%30.00 "Hg10 mi
2:54 PM43 °FMostly cloudy.8 mph71%30.02 "Hg10 mi
Weather by CustomWeather, © 2015

See weather overviewHow to use our weather pages